DAL1573 KMCO-KLGA

Flight info

Callsign DAL1573
Flight time 2h 13m
Altitude 31000
Route FATHE4 VIYAP Q87 HURTS PROUD2
Aircraft A321/M-SDE3FGHIRWY/LB1

Departure

Time 2026-04-21 13:02
Airport Orlando International Airport (KMCO)

Arrival

Time 2026-04-21 15:16
Airport LaGuardia Airport (KLGA)
Time Latitude Longitude Altitude Speed Heading
2026-04-21 12:41 28.42617 -81.30009 94 ft 0 kts 240°
2026-04-21 12:50 28.42620 -81.30003 96 ft 3 kts 240°
2026-04-21 12:50 28.42629 -81.29984 94 ft 3 kts 240°
2026-04-21 12:50 28.42638 -81.29966 95 ft 3 kts 240°
2026-04-21 12:51 28.42647 -81.29947 94 ft 3 kts 240°
2026-04-21 12:51 28.42657 -81.29928 93 ft 3 kts 240°
2026-04-21 12:51 28.42666 -81.29910 95 ft 3 kts 239°
2026-04-21 12:51 28.42678 -81.29893 93 ft 3 kts 210°
2026-04-21 12:52 28.42683 -81.29889 96 ft 0 kts 210°
2026-04-21 12:55 28.42654 -81.29890 94 ft 8 kts 172°
2026-04-21 12:55 28.42608 -81.29868 96 ft 6 kts 139°
2026-04-21 12:56 28.42588 -81.29806 97 ft 9 kts 126°
2026-04-21 12:56 28.42526 -81.29796 97 ft 12 kts 179°
2026-04-21 12:56 28.42431 -81.29795 96 ft 13 kts 179°
2026-04-21 12:56 28.42342 -81.29794 96 ft 12 kts 180°
2026-04-21 12:57 28.42262 -81.29793 96 ft 11 kts 179°
2026-04-21 12:57 28.42162 -81.29792 96 ft 16 kts 179°
2026-04-21 12:57 28.42058 -81.29791 96 ft 14 kts 179°
2026-04-21 12:57 28.41954 -81.29790 96 ft 17 kts 179°
2026-04-21 12:58 28.41836 -81.29788 95 ft 16 kts 179°
2026-04-21 12:58 28.41727 -81.29787 96 ft 16 kts 180°
2026-04-21 12:58 28.41614 -81.29786 95 ft 16 kts 179°
2026-04-21 12:58 28.41510 -81.29785 96 ft 14 kts 179°
2026-04-21 12:59 28.41393 -81.29784 95 ft 18 kts 179°
2026-04-21 12:59 28.41273 -81.29783 96 ft 17 kts 179°
2026-04-21 12:59 28.41162 -81.29782 97 ft 15 kts 179°
2026-04-21 12:59 28.41060 -81.29781 94 ft 14 kts 179°
2026-04-21 13:00 28.40950 -81.29779 94 ft 17 kts 179°
2026-04-21 13:00 28.40841 -81.29769 100 ft 15 kts 152°
2026-04-21 13:00 28.40820 -81.29666 97 ft 14 kts 89°
2026-04-21 13:00 28.40825 -81.29570 93 ft 8 kts 64°
2026-04-21 13:01 28.40871 -81.29559 93 ft 7 kts 359°
2026-04-21 13:01 28.41006 -81.29560 97 ft 46 kts 360°
2026-04-21 13:01 28.41556 -81.29566 98 ft 109 kts 359°
2026-04-21 13:01 28.42490 -81.29577 98 ft 157 kts 359°
2026-04-21 13:02 28.43631 -81.29596 502 ft 163 kts
2026-04-21 13:02 28.44760 -81.29545 1125 ft 161 kts 18°
2026-04-21 13:02 28.46749 -81.28410 2131 ft 168 kts 34°
2026-04-21 13:03 28.47787 -81.27732 2484 ft 177 kts 34°
2026-04-21 13:03 28.48900 -81.26997 2766 ft 192 kts 34°
2026-04-21 13:03 28.50112 -81.26195 2931 ft 213 kts 33°
2026-04-21 13:03 28.51516 -81.25390 3178 ft 240 kts 18°
2026-04-21 13:04 28.53226 -81.25185 3845 ft 251 kts
2026-04-21 13:04 28.54974 -81.25092 4704 ft 253 kts
2026-04-21 13:04 28.56743 -81.25114 5523 ft 256 kts
2026-04-21 13:04 28.58536 -81.25209 6271 ft 261 kts 358°
2026-04-21 13:05 28.60362 -81.25453 6975 ft 267 kts 354°
2026-04-21 13:05 28.62212 -81.25755 7690 ft 270 kts 353°
2026-04-21 13:05 28.64085 -81.26062 8407 ft 274 kts 353°
2026-04-21 13:05 28.65982 -81.26349 9135 ft 276 kts 353°
2026-04-21 13:06 28.67902 -81.26624 9854 ft 280 kts 353°
2026-04-21 13:06 28.69856 -81.26897 10390 ft 291 kts 352°
2026-04-21 13:06 28.71924 -81.27184 10679 ft 308 kts 352°
2026-04-21 13:06 28.74078 -81.27480 10961 ft 324 kts 352°
2026-04-21 13:07 28.76370 -81.27790 11265 ft 338 kts 353°
2026-04-21 13:07 28.78727 -81.28107 11835 ft 343 kts 352°
2026-04-21 13:07 28.81111 -81.28432 12482 ft 346 kts 352°
2026-04-21 13:07 28.83512 -81.28759 13165 ft 349 kts 352°
2026-04-21 13:08 28.85142 -81.28969 13613 ft 350 kts 353°
2026-04-21 13:08 28.88378 -81.29290 14457 ft 354 kts 354°
2026-04-21 13:08 28.90844 -81.29487 15033 ft 357 kts 354°
2026-04-21 13:08 28.93334 -81.29672 15614 ft 360 kts 354°
2026-04-21 13:09 28.95846 -81.29859 16175 ft 364 kts 354°
2026-04-21 13:09 28.98382 -81.30058 16737 ft 367 kts 354°
2026-04-21 13:09 29.00936 -81.30281 17301 ft 370 kts 353°
2026-04-21 13:09 29.03503 -81.30551 17838 ft 373 kts 352°
2026-04-21 13:10 29.06095 -81.30849 18382 ft 376 kts 351°
2026-04-21 13:10 29.08706 -81.31159 18857 ft 379 kts 351°
2026-04-21 13:10 29.11337 -81.31464 19314 ft 381 kts 352°
2026-04-21 13:10 29.13094 -81.31628 19619 ft 383 kts 353°
2026-04-21 13:11 29.15766 -81.31813 20071 ft 386 kts 354°
2026-04-21 13:11 29.18460 -81.31955 20513 ft 389 kts 354°
2026-04-21 13:11 29.21169 -81.32084 20960 ft 391 kts 354°
2026-04-21 13:11 29.23898 -81.32218 21412 ft 394 kts 354°
2026-04-21 13:12 29.26643 -81.32364 21837 ft 396 kts 354°
2026-04-21 13:12 29.29407 -81.32519 22279 ft 398 kts 353°
2026-04-21 13:12 29.32184 -81.32682 22736 ft 401 kts 353°
2026-04-21 13:12 29.34975 -81.32851 23164 ft 403 kts 353°
2026-04-21 13:13 29.37784 -81.33026 23607 ft 406 kts 353°
2026-04-21 13:13 29.40613 -81.33202 24001 ft 408 kts 353°
2026-04-21 13:13 29.43457 -81.33377 24352 ft 410 kts 353°
2026-04-21 13:13 29.46316 -81.33550 24707 ft 412 kts 353°
2026-04-21 13:14 29.49189 -81.33720 25072 ft 414 kts 353°
2026-04-21 13:14 29.52073 -81.33890 25416 ft 416 kts 353°
2026-04-21 13:14 29.54969 -81.34066 25764 ft 418 kts 353°
2026-04-21 13:14 29.57875 -81.34243 26112 ft 419 kts 352°
2026-04-21 13:15 29.60794 -81.34423 26452 ft 421 kts 352°
2026-04-21 13:15 29.63726 -81.34602 26789 ft 423 kts 352°
2026-04-21 13:15 29.66669 -81.34777 27118 ft 425 kts 352°
2026-04-21 13:15 29.69628 -81.34949 27442 ft 426 kts 352°
2026-04-21 13:16 29.72593 -81.35119 27768 ft 428 kts 352°
2026-04-21 13:16 29.75579 -81.35288 28088 ft 430 kts 352°
2026-04-21 13:16 29.78535 -81.35453 28397 ft 432 kts 352°
2026-04-21 13:16 29.81541 -81.35623 28695 ft 434 kts 352°
2026-04-21 13:17 29.84560 -81.35795 28990 ft 435 kts 352°
2026-04-21 13:17 29.87591 -81.35968 29291 ft 437 kts 352°
2026-04-21 13:17 29.90634 -81.36142 29592 ft 439 kts 352°
2026-04-21 13:17 29.93692 -81.36319 29888 ft 440 kts 352°
2026-04-21 13:18 29.96758 -81.36497 30177 ft 442 kts 352°
2026-04-21 13:18 29.99823 -81.36672 30557 ft 440 kts 352°
2026-04-21 13:18 30.02875 -81.36847 30912 ft 439 kts 352°
2026-04-21 13:18 30.05919 -81.37023 31247 ft 438 kts 352°
2026-04-21 13:19 30.11919 -81.37367 31353 ft 423 kts 352°
2026-04-21 13:19 30.17764 -81.37698 31346 ft 419 kts 352°
2026-04-21 13:20 30.23583 -81.38036 31348 ft 418 kts 352°
2026-04-21 13:20 30.29400 -81.38378 31348 ft 418 kts 352°
2026-04-21 13:21 30.35212 -81.38715 31351 ft 418 kts 352°
2026-04-21 13:21 30.41023 -81.39051 31352 ft 418 kts 352°
2026-04-21 13:22 30.46836 -81.39389 31354 ft 418 kts 352°
2026-04-21 13:22 30.52644 -81.39704 31365 ft 418 kts 352°
2026-04-21 13:23 30.58454 -81.40007 31369 ft 418 kts 352°
2026-04-21 13:23 30.64253 -81.40315 31368 ft 417 kts 352°
2026-04-21 13:24 30.70050 -81.40620 31371 ft 417 kts 352°
2026-04-21 13:24 30.75845 -81.40922 31369 ft 416 kts 352°
2026-04-21 13:25 30.81632 -81.41227 31363 ft 416 kts 352°
2026-04-21 13:25 30.87412 -81.41534 31369 ft 416 kts 352°
2026-04-21 13:26 30.93186 -81.41840 31363 ft 415 kts 352°
2026-04-21 13:26 30.98956 -81.42156 31363 ft 415 kts 352°
2026-04-21 13:27 31.04676 -81.42460 31355 ft 414 kts 352°
2026-04-21 13:27 31.10430 -81.42768 31356 ft 414 kts 352°
2026-04-21 13:28 31.16177 -81.43073 31362 ft 413 kts 352°
2026-04-21 13:28 31.21916 -81.43364 31373 ft 414 kts 354°
2026-04-21 13:29 31.27655 -81.42199 31375 ft 429 kts 14°
2026-04-21 13:29 31.33122 -81.39285 31377 ft 432 kts 18°
2026-04-21 13:30 31.38571 -81.36327 31379 ft 432 kts 18°
2026-04-21 13:30 31.44022 -81.33377 31378 ft 431 kts 18°
2026-04-21 13:31 31.49464 -81.30426 31378 ft 431 kts 18°
2026-04-21 13:31 31.54896 -81.27465 31374 ft 430 kts 18°
2026-04-21 13:32 31.60323 -81.24512 31371 ft 430 kts 18°
2026-04-21 13:32 31.65744 -81.21560 31364 ft 429 kts 18°
2026-04-21 13:33 31.71154 -81.18605 31353 ft 429 kts 18°
2026-04-21 13:33 31.76558 -81.15644 31344 ft 428 kts 18°
2026-04-21 13:34 31.81942 -81.12630 31340 ft 429 kts 19°
2026-04-21 13:34 31.87295 -81.09539 31335 ft 428 kts 20°
2026-04-21 13:35 31.92642 -81.06448 31332 ft 428 kts 19°
2026-04-21 13:35 31.97991 -81.03375 31331 ft 428 kts 19°
2026-04-21 13:36 32.03339 -81.00310 31333 ft 427 kts 19°
2026-04-21 13:36 32.08654 -80.97268 31334 ft 427 kts 19°
2026-04-21 13:37 32.13999 -80.94203 31337 ft 427 kts 19°
2026-04-21 13:37 32.19343 -80.91131 31359 ft 427 kts 19°
2026-04-21 13:38 32.24681 -80.88049 31363 ft 427 kts 19°
2026-04-21 13:38 32.30019 -80.84967 31363 ft 427 kts 19°
2026-04-21 13:39 32.35354 -80.81887 31359 ft 427 kts 19°
2026-04-21 13:39 32.40687 -80.78808 31364 ft 426 kts 19°
2026-04-21 13:40 32.46021 -80.75730 31364 ft 426 kts 19°
2026-04-21 13:40 32.51350 -80.72645 31363 ft 426 kts 19°
2026-04-21 13:41 32.56635 -80.69567 31370 ft 426 kts 19°
2026-04-21 13:41 32.61951 -80.66461 31372 ft 426 kts 19°
2026-04-21 13:42 32.67265 -80.63368 31381 ft 425 kts 19°
2026-04-21 13:42 32.72579 -80.60278 31385 ft 425 kts 19°
2026-04-21 13:43 32.77885 -80.57186 31391 ft 425 kts 19°
2026-04-21 13:43 32.83187 -80.54082 31396 ft 424 kts 19°
2026-04-21 13:44 32.88482 -80.50980 31396 ft 424 kts 19°
2026-04-21 13:44 32.93773 -80.47875 31393 ft 424 kts 19°
2026-04-21 13:45 32.99063 -80.44772 31389 ft 423 kts 19°
2026-04-21 13:45 33.04343 -80.41671 31389 ft 423 kts 19°
2026-04-21 13:46 33.09621 -80.38562 31388 ft 423 kts 19°
2026-04-21 13:46 33.14896 -80.35461 31386 ft 422 kts 19°
2026-04-21 13:47 33.20165 -80.32362 31385 ft 422 kts 19°
2026-04-21 13:47 33.25428 -80.29247 31382 ft 422 kts 19°
2026-04-21 13:48 33.30689 -80.26127 31387 ft 422 kts 19°
2026-04-21 13:48 33.35945 -80.23015 31400 ft 421 kts 19°
2026-04-21 13:49 33.41199 -80.19898 31413 ft 421 kts 19°
2026-04-21 13:49 33.46448 -80.16787 31419 ft 421 kts 19°
2026-04-21 13:50 33.51695 -80.13670 31424 ft 421 kts 19°
2026-04-21 13:50 33.56932 -80.10543 31426 ft 420 kts 19°
2026-04-21 13:51 33.62168 -80.07418 31422 ft 420 kts 19°
2026-04-21 13:51 33.67400 -80.04288 31418 ft 420 kts 19°
2026-04-21 13:52 33.72594 -80.01186 31423 ft 419 kts 19°
2026-04-21 13:52 33.77816 -79.98063 31425 ft 419 kts 19°
2026-04-21 13:53 33.83033 -79.94933 31422 ft 419 kts 19°
2026-04-21 13:53 33.88246 -79.91802 31424 ft 418 kts 19°
2026-04-21 13:54 33.93451 -79.88673 31421 ft 418 kts 19°
2026-04-21 13:54 33.98654 -79.85539 31424 ft 418 kts 19°
2026-04-21 13:55 34.03851 -79.82406 31424 ft 418 kts 19°
2026-04-21 13:55 34.09048 -79.79277 31432 ft 417 kts 19°
2026-04-21 13:56 34.14239 -79.76133 31432 ft 417 kts 19°
2026-04-21 13:56 34.19425 -79.72984 31430 ft 417 kts 19°
2026-04-21 13:57 34.24616 -79.69844 31432 ft 417 kts 19°
2026-04-21 13:57 34.29801 -79.66696 31429 ft 417 kts 19°
2026-04-21 13:58 34.34987 -79.63537 31431 ft 417 kts 19°
2026-04-21 13:58 34.40174 -79.60373 31429 ft 418 kts 19°
2026-04-21 13:59 34.45348 -79.57169 31445 ft 418 kts 20°
2026-04-21 13:59 34.50521 -79.53945 31450 ft 418 kts 20°
2026-04-21 14:00 34.54817 -79.51266 31451 ft 418 kts 19°
2026-04-21 14:00 34.59954 -79.47926 31457 ft 419 kts 21°
2026-04-21 14:01 34.65044 -79.44454 31466 ft 420 kts 21°
2026-04-21 14:01 34.70133 -79.40978 31466 ft 419 kts 21°
2026-04-21 14:02 34.75224 -79.37535 31473 ft 419 kts 21°
2026-04-21 14:03 34.82856 -79.32380 31483 ft 418 kts 21°
2026-04-21 14:03 34.87937 -79.28942 31481 ft 418 kts 21°
2026-04-21 14:04 34.93006 -79.25491 31474 ft 417 kts 21°
2026-04-21 14:04 34.98027 -79.21918 31481 ft 420 kts 24°
2026-04-21 14:05 35.02892 -79.17940 31467 ft 422 kts 27°
2026-04-21 14:05 35.07712 -79.13853 31473 ft 421 kts 26°
2026-04-21 14:06 35.12549 -79.09830 31472 ft 420 kts 26°
2026-04-21 14:06 35.17400 -79.05861 31474 ft 419 kts 25°
2026-04-21 14:07 35.22247 -79.01898 31477 ft 419 kts 26°
2026-04-21 14:07 35.27090 -78.97932 31476 ft 419 kts 26°
2026-04-21 14:08 35.31923 -78.93959 31477 ft 418 kts 26°
2026-04-21 14:08 35.36749 -78.89983 31507 ft 418 kts 26°
2026-04-21 14:09 35.41537 -78.86027 31509 ft 418 kts 26°
2026-04-21 14:09 35.46390 -78.82028 31508 ft 417 kts 26°
2026-04-21 14:10 35.51179 -78.78089 31505 ft 417 kts 26°
2026-04-21 14:10 35.55994 -78.74123 31497 ft 417 kts 26°
2026-04-21 14:11 35.60775 -78.70172 31490 ft 417 kts 26°
2026-04-21 14:11 35.65585 -78.66195 31480 ft 417 kts 26°
2026-04-21 14:12 35.70394 -78.62208 31479 ft 417 kts 26°
2026-04-21 14:12 35.75196 -78.58214 31477 ft 417 kts 26°
2026-04-21 14:13 35.80002 -78.54220 31476 ft 417 kts 26°
2026-04-21 14:13 35.84808 -78.50220 31482 ft 417 kts 26°
2026-04-21 14:14 35.89614 -78.46209 31485 ft 417 kts 26°
2026-04-21 14:14 35.94426 -78.42195 31492 ft 417 kts 26°
2026-04-21 14:15 35.99236 -78.38176 31496 ft 418 kts 26°
2026-04-21 14:15 36.04046 -78.34147 31497 ft 418 kts 26°
2026-04-21 14:16 36.08862 -78.30111 31495 ft 418 kts 26°
2026-04-21 14:16 36.13677 -78.26068 31492 ft 419 kts 26°
2026-04-21 14:17 36.18495 -78.22009 31478 ft 419 kts 27°
2026-04-21 14:17 36.23319 -78.17939 31465 ft 420 kts 27°
2026-04-21 14:18 36.28150 -78.13869 31468 ft 420 kts 27°
2026-04-21 14:18 36.32980 -78.09784 31462 ft 421 kts 27°
2026-04-21 14:19 36.37812 -78.05689 31473 ft 421 kts 27°
2026-04-21 14:19 36.42649 -78.01590 31489 ft 421 kts 27°
2026-04-21 14:20 36.47485 -77.97483 31501 ft 421 kts 27°
2026-04-21 14:20 36.52326 -77.93374 31514 ft 421 kts 27°
2026-04-21 14:21 36.57164 -77.89254 31521 ft 422 kts 27°
2026-04-21 14:21 36.61968 -77.85147 31497 ft 422 kts 27°
2026-04-21 14:22 36.66807 -77.81020 31508 ft 422 kts 27°
2026-04-21 14:22 36.71646 -77.76885 31511 ft 422 kts 27°
2026-04-21 14:23 36.76476 -77.72740 31511 ft 421 kts 27°
2026-04-21 14:23 36.81303 -77.68593 31510 ft 421 kts 27°
2026-04-21 14:24 36.86129 -77.64449 31505 ft 421 kts 27°
2026-04-21 14:24 36.90953 -77.60297 31499 ft 421 kts 27°
2026-04-21 14:25 36.95772 -77.56146 31492 ft 421 kts 27°
2026-04-21 14:25 37.00585 -77.51982 31488 ft 420 kts 27°
2026-04-21 14:26 37.05390 -77.47822 31494 ft 420 kts 27°
2026-04-21 14:26 37.10195 -77.43657 31497 ft 420 kts 27°
2026-04-21 14:27 37.14996 -77.39492 31497 ft 419 kts 27°
2026-04-21 14:27 37.19791 -77.35326 31498 ft 419 kts 27°
2026-04-21 14:28 37.24582 -77.31165 31503 ft 419 kts 27°
2026-04-21 14:28 37.29372 -77.26993 31496 ft 419 kts 27°
2026-04-21 14:29 37.34152 -77.22818 31496 ft 418 kts 27°
2026-04-21 14:29 37.38926 -77.18638 31495 ft 418 kts 27°
2026-04-21 14:30 37.43697 -77.14453 31497 ft 418 kts 27°
2026-04-21 14:30 37.48467 -77.10275 31496 ft 418 kts 27°
2026-04-21 14:31 37.53201 -77.06119 31496 ft 417 kts 27°
2026-04-21 14:31 37.57963 -77.01934 31499 ft 417 kts 27°
2026-04-21 14:32 37.62721 -76.97747 31497 ft 417 kts 27°
2026-04-21 14:32 37.67469 -76.93544 31496 ft 417 kts 27°
2026-04-21 14:33 37.72217 -76.89339 31500 ft 417 kts 27°
2026-04-21 14:33 37.76960 -76.85133 31502 ft 416 kts 27°
2026-04-21 14:34 37.81701 -76.80925 31503 ft 416 kts 27°
2026-04-21 14:34 37.86442 -76.76719 31502 ft 416 kts 27°
2026-04-21 14:35 37.91178 -76.72507 31497 ft 416 kts 27°
2026-04-21 14:35 37.95914 -76.68287 31489 ft 416 kts 27°
2026-04-21 14:36 38.00646 -76.64067 31478 ft 416 kts 27°
2026-04-21 14:36 38.05372 -76.59833 31478 ft 416 kts 27°
2026-04-21 14:37 38.10099 -76.55594 31478 ft 416 kts 27°
2026-04-21 14:37 38.14823 -76.51356 31480 ft 416 kts 27°
2026-04-21 14:38 38.19548 -76.47112 31339 ft 416 kts 27°
2026-04-21 14:38 38.21910 -76.44983 31095 ft 416 kts 28°
2026-04-21 14:38 38.24267 -76.42853 30867 ft 415 kts 28°
2026-04-21 14:38 38.26618 -76.40728 30629 ft 413 kts 28°
2026-04-21 14:39 38.28955 -76.38613 30362 ft 411 kts 27°
2026-04-21 14:39 38.31284 -76.36512 30076 ft 409 kts 27°
2026-04-21 14:39 38.33602 -76.34420 29799 ft 407 kts 27°
2026-04-21 14:39 38.35908 -76.32338 29518 ft 405 kts 27°
2026-04-21 14:40 38.38204 -76.30266 29248 ft 404 kts 27°
2026-04-21 14:40 38.40492 -76.28200 28976 ft 402 kts 27°
2026-04-21 14:40 38.42763 -76.26142 28704 ft 400 kts 27°
2026-04-21 14:40 38.45025 -76.24088 28441 ft 398 kts 27°
2026-04-21 14:41 38.47278 -76.22042 28173 ft 396 kts 27°
2026-04-21 14:41 38.49520 -76.20006 27913 ft 395 kts 27°
2026-04-21 14:41 38.51752 -76.17977 27653 ft 393 kts 27°
2026-04-21 14:41 38.53973 -76.15954 27456 ft 391 kts 28°
2026-04-21 14:42 38.56184 -76.13937 27476 ft 391 kts 27°
2026-04-21 14:42 38.58399 -76.11920 27480 ft 391 kts 27°
2026-04-21 14:42 38.60615 -76.09903 27476 ft 391 kts 27°
2026-04-21 14:42 38.62831 -76.07884 27478 ft 391 kts 28°
2026-04-21 14:43 38.65045 -76.05863 27476 ft 391 kts 27°
2026-04-21 14:43 38.67260 -76.03839 27477 ft 391 kts 28°
2026-04-21 14:43 38.69474 -76.01818 27476 ft 391 kts 27°
2026-04-21 14:43 38.71688 -75.99794 27477 ft 391 kts 28°
2026-04-21 14:44 38.73899 -75.97767 27478 ft 391 kts 28°
2026-04-21 14:44 38.76108 -75.95736 27477 ft 391 kts 28°
2026-04-21 14:44 38.78316 -75.93702 27478 ft 391 kts 28°
2026-04-21 14:44 38.80525 -75.91670 27479 ft 391 kts 28°
2026-04-21 14:45 38.82733 -75.89641 27477 ft 391 kts 27°
2026-04-21 14:45 38.84945 -75.87610 27477 ft 391 kts 28°
2026-04-21 14:45 38.87153 -75.85579 27476 ft 391 kts 28°
2026-04-21 14:45 38.89361 -75.83543 27477 ft 391 kts 28°
2026-04-21 14:46 38.91566 -75.81504 27474 ft 391 kts 28°
2026-04-21 14:46 38.93027 -75.80154 27473 ft 391 kts 28°
2026-04-21 14:46 38.95235 -75.78112 27403 ft 391 kts 28°
2026-04-21 14:46 38.97431 -75.76062 27174 ft 390 kts 28°
2026-04-21 14:47 39.00317 -75.73335 26920 ft 388 kts 28°
2026-04-21 14:47 39.02484 -75.71272 26718 ft 387 kts 28°
2026-04-21 14:47 39.03943 -75.69879 26594 ft 386 kts 28°
2026-04-21 14:47 39.06797 -75.67165 26332 ft 384 kts 28°
2026-04-21 14:48 39.08249 -75.65788 26208 ft 383 kts 28°
2026-04-21 14:48 39.10390 -75.63759 26013 ft 382 kts 28°
2026-04-21 14:48 39.12528 -75.61732 25832 ft 381 kts 28°
2026-04-21 14:48 39.14657 -75.59713 25632 ft 380 kts 28°
2026-04-21 14:49 39.16782 -75.57699 25442 ft 378 kts 28°
2026-04-21 14:49 39.18896 -75.55687 25254 ft 377 kts 28°
2026-04-21 14:49 39.21001 -75.53678 25052 ft 376 kts 28°
2026-04-21 14:49 39.23100 -75.51671 24877 ft 375 kts 28°
2026-04-21 14:50 39.25208 -75.49707 24691 ft 372 kts 27°
2026-04-21 14:50 39.27329 -75.47810 24509 ft 371 kts 26°
2026-04-21 14:50 39.29459 -75.45944 24310 ft 369 kts 26°
2026-04-21 14:50 39.31582 -75.44094 24134 ft 368 kts 26°
2026-04-21 14:51 39.33670 -75.42270 23944 ft 367 kts 26°
2026-04-21 14:51 39.35805 -75.40391 23748 ft 366 kts 26°
2026-04-21 14:51 39.37903 -75.38535 23569 ft 365 kts 26°
2026-04-21 14:51 39.39992 -75.36681 23386 ft 364 kts 27°
2026-04-21 14:52 39.42072 -75.34829 23203 ft 363 kts 27°
2026-04-21 14:52 39.44148 -75.32976 23019 ft 362 kts 27°
2026-04-21 14:52 39.46214 -75.31128 22838 ft 361 kts 27°
2026-04-21 14:52 39.48275 -75.29284 22657 ft 360 kts 27°
2026-04-21 14:53 39.50331 -75.27445 22480 ft 359 kts 27°
2026-04-21 14:53 39.52375 -75.25598 22113 ft 358 kts 27°
2026-04-21 14:53 39.54393 -75.23725 21715 ft 356 kts 28°
2026-04-21 14:53 39.56388 -75.21846 21333 ft 354 kts 28°
2026-04-21 14:54 39.58368 -75.19971 20945 ft 351 kts 28°
2026-04-21 14:54 39.60311 -75.18135 20569 ft 349 kts 28°
2026-04-21 14:54 39.62297 -75.16263 20195 ft 347 kts 28°
2026-04-21 14:54 39.64225 -75.14450 19726 ft 346 kts 28°
2026-04-21 14:55 39.66164 -75.12626 19274 ft 343 kts 28°
2026-04-21 14:55 39.68093 -75.10817 18828 ft 341 kts 28°
2026-04-21 14:55 39.70038 -75.09078 18316 ft 338 kts 26°
2026-04-21 14:55 39.71990 -75.07403 17874 ft 335 kts 26°
2026-04-21 14:56 39.73934 -75.05760 17516 ft 333 kts 26°
2026-04-21 14:56 39.75872 -75.04126 17155 ft 332 kts 26°
2026-04-21 14:56 39.77805 -75.02488 16785 ft 331 kts 26°
2026-04-21 14:56 39.79724 -75.00847 16425 ft 329 kts 27°
2026-04-21 14:57 39.81629 -74.99202 16067 ft 328 kts 27°
2026-04-21 14:57 39.83524 -74.97563 15712 ft 327 kts 27°
2026-04-21 14:57 39.85418 -74.95923 15362 ft 326 kts 27°
2026-04-21 14:57 39.87286 -74.94263 15014 ft 323 kts 28°
2026-04-21 14:58 39.89117 -74.92603 14678 ft 318 kts 29°
2026-04-21 14:58 39.90891 -74.90978 14348 ft 306 kts 29°
2026-04-21 14:58 39.92535 -74.89276 14008 ft 301 kts 38°
2026-04-21 14:58 39.93954 -74.87272 13649 ft 299 kts 41°
2026-04-21 14:59 39.95341 -74.85268 13305 ft 297 kts 41°
2026-04-21 14:59 39.96722 -74.83286 12973 ft 294 kts 41°
2026-04-21 14:59 39.98095 -74.81327 12667 ft 292 kts 41°
2026-04-21 14:59 39.99461 -74.79381 12347 ft 291 kts 41°
2026-04-21 15:00 40.00824 -74.77438 12034 ft 290 kts 41°
2026-04-21 15:00 40.02182 -74.75499 11714 ft 289 kts 41°
2026-04-21 15:00 40.03538 -74.73564 11393 ft 288 kts 41°
2026-04-21 15:00 40.04887 -74.71630 11079 ft 288 kts 42°
2026-04-21 15:01 40.06232 -74.69701 10769 ft 287 kts 42°
2026-04-21 15:01 40.07571 -74.67774 10453 ft 286 kts 42°
2026-04-21 15:01 40.08908 -74.65852 10117 ft 285 kts 42°
2026-04-21 15:01 40.10240 -74.63938 10015 ft 284 kts 42°
2026-04-21 15:02 40.11571 -74.62024 10030 ft 285 kts 42°
2026-04-21 15:02 40.12884 -74.60128 10027 ft 285 kts 43°
2026-04-21 15:02 40.14209 -74.58200 10034 ft 285 kts 43°
2026-04-21 15:02 40.15540 -74.56275 10027 ft 285 kts 42°
2026-04-21 15:03 40.16870 -74.54360 10021 ft 286 kts 42°
2026-04-21 15:03 40.18209 -74.52436 9738 ft 285 kts 42°
2026-04-21 15:03 40.19537 -74.50525 9474 ft 283 kts 43°
2026-04-21 15:03 40.20873 -74.48646 9207 ft 281 kts 41°
2026-04-21 15:04 40.22254 -74.46853 8951 ft 279 kts 39°
2026-04-21 15:04 40.23651 -74.45108 8681 ft 277 kts 39°
2026-04-21 15:04 40.25048 -74.43377 8419 ft 276 kts 39°
2026-04-21 15:04 40.26436 -74.41652 8160 ft 275 kts 39°
2026-04-21 15:05 40.27814 -74.39926 7901 ft 273 kts 40°
2026-04-21 15:05 40.30544 -74.36487 7393 ft 271 kts 40°
2026-04-21 15:05 40.31900 -74.34773 7134 ft 270 kts 40°
2026-04-21 15:06 40.33248 -74.33069 7018 ft 269 kts 40°
2026-04-21 15:06 40.34593 -74.31367 7013 ft 269 kts 40°
2026-04-21 15:06 40.35941 -74.29662 6957 ft 270 kts 40°
2026-04-21 15:06 40.37288 -74.27954 6687 ft 268 kts 40°
2026-04-21 15:07 40.38620 -74.26258 6422 ft 267 kts 41°
2026-04-21 15:07 40.39949 -74.24569 6153 ft 265 kts 41°
2026-04-21 15:07 40.41275 -74.22885 5891 ft 264 kts 41°
2026-04-21 15:07 40.42593 -74.21211 5626 ft 263 kts 41°
2026-04-21 15:08 40.43907 -74.19541 5360 ft 262 kts 42°
2026-04-21 15:08 40.45214 -74.17878 5102 ft 261 kts 42°
2026-04-21 15:08 40.46516 -74.16220 4824 ft 260 kts 42°
2026-04-21 15:08 40.47815 -74.14563 4555 ft 260 kts 43°
2026-04-21 15:09 40.49107 -74.12913 4287 ft 259 kts 43°
2026-04-21 15:09 40.50398 -74.11264 4026 ft 258 kts 43°
2026-04-21 15:09 40.51682 -74.09620 3761 ft 257 kts 44°
2026-04-21 15:09 40.53030 -74.08089 3493 ft 256 kts 34°
2026-04-21 15:10 40.54512 -74.06811 3242 ft 253 kts 31°
2026-04-21 15:10 40.55993 -74.05620 3051 ft 244 kts 31°
2026-04-21 15:10 40.57381 -74.04491 3022 ft 230 kts 31°
2026-04-21 15:10 40.58695 -74.03413 3039 ft 214 kts 32°
2026-04-21 15:11 40.59933 -74.02397 3035 ft 207 kts 32°
2026-04-21 15:11 40.61136 -74.01409 3023 ft 198 kts 31°
2026-04-21 15:11 40.62271 -74.00476 3029 ft 188 kts 32°
2026-04-21 15:11 40.63370 -73.99574 3048 ft 185 kts 32°
2026-04-21 15:12 40.64454 -73.98683 3033 ft 183 kts 32°
2026-04-21 15:12 40.65533 -73.97796 2918 ft 183 kts 32°
2026-04-21 15:12 40.66606 -73.96913 2679 ft 179 kts 32°
2026-04-21 15:12 40.67641 -73.96061 2431 ft 173 kts 32°
2026-04-21 15:13 40.68656 -73.95225 2183 ft 171 kts 32°
2026-04-21 15:13 40.69660 -73.94399 1925 ft 170 kts 32°
2026-04-21 15:13 40.70657 -73.93577 1676 ft 167 kts 32°
2026-04-21 15:13 40.71612 -73.92790 1435 ft 157 kts 32°
2026-04-21 15:14 40.72503 -73.92055 1194 ft 146 kts 32°
2026-04-21 15:14 40.73349 -73.91358 964 ft 141 kts 32°
2026-04-21 15:14 40.74177 -73.90676 762 ft 140 kts 32°
2026-04-21 15:14 40.74998 -73.89997 567 ft 139 kts 32°
2026-04-21 15:15 40.75817 -73.89321 353 ft 138 kts 32°
2026-04-21 15:15 40.76634 -73.88649 147 ft 138 kts 32°
2026-04-21 15:15 40.77430 -73.87991 23 ft 123 kts 32°
2026-04-21 15:15 40.77912 -73.87592 18 ft 52 kts 32°
2026-04-21 15:16 40.78163 -73.87386 17 ft 26 kts 32°
2026-04-21 15:16 40.78242 -73.87292 17 ft 8 kts 91°
2026-04-21 15:16 40.78215 -73.87227 17 ft 7 kts 128°
2026-04-21 15:16 40.78180 -73.87223 18 ft 7 kts 200°
2026-04-21 15:17 40.78116 -73.87274 18 ft 12 kts 212°
2026-04-21 15:17 40.78042 -73.87334 14 ft 14 kts 212°
2026-04-21 15:17 40.77960 -73.87402 14 ft 14 kts 212°
2026-04-21 15:17 40.77888 -73.87462 15 ft 6 kts 212°
2026-04-21 15:18 40.77855 -73.87456 15 ft 9 kts 139°
2026-04-21 15:18 40.77800 -73.87401 15 ft 8 kts 167°
2026-04-21 15:18 40.77774 -73.87369 15 ft 4 kts 100°
2026-04-21 15:18 40.77773 -73.87319 15 ft 5 kts 90°
2026-04-21 15:19 40.77768 -73.87268 15 ft 6 kts 105°
2026-04-21 15:19 40.77723 -73.87165 15 ft 18 kts 122°
2026-04-21 15:19 40.77659 -73.87028 15 ft 18 kts 122°
2026-04-21 15:19 40.77591 -73.86886 14 ft 18 kts 123°
2026-04-21 15:20 40.77517 -73.86751 15 ft 18 kts 126°
2026-04-21 15:20 40.77447 -73.86609 13 ft 18 kts 122°
2026-04-21 15:20 40.77381 -73.86471 13 ft 17 kts 122°
2026-04-21 15:20 40.77342 -73.86388 13 ft 10 kts 122°
2026-04-21 15:21 40.77304 -73.86308 12 ft 10 kts 122°
2026-04-21 15:21 40.77266 -73.86230 13 ft 10 kts 122°
2026-04-21 15:21 40.77226 -73.86144 13 ft 12 kts 122°
2026-04-21 15:21 40.77160 -73.86096 17 ft 11 kts 197°
2026-04-21 15:22 40.77113 -73.86143 20 ft 7 kts 221°
2026-04-21 15:22 40.77092 -73.86176 21 ft 2 kts 256°
2026-04-21 15:22 40.77095 -73.86186 20 ft 1 kts 291°
2026-04-21 15:22 40.77108 -73.86206 21 ft 4 kts 312°
2026-04-21 15:23 40.77117 -73.86219 20 ft 1 kts 312°
2026-04-21 15:23 40.77121 -73.86224 20 ft 0 kts 312°